ヘリン-ローレンス彗星

152P/Helin-Lawrence (2012)

English version
Home page
Total 6,336 html files since Dec. 4, 1995
Updated on December 2, 2007

---------------------------------------------------------------------

・ プロフィール

・ 軌道要素

Perturbed ephemeris below is based on elements from MPC 44505. 

 Epoch = 2456120.50000 TT   T = 2456117.71421 TT
 Peri. =  163.80105         a =     4.4993341 AU
 Node  =   91.90959 J2000.0 e =     0.3073523
 Incl. =    9.86707         q =     3.1164533 AU

・ 星図

・ 光度変化

        m1 = 10.0 + 5 logΔ + 10.0 log r(t - 250)

---------------------------------------------------------------------

軌道要素はMinor Planet & Comet Ephemeris Serviceで計算したものです。
星図はステラナビゲータ Ver.8 (アストロアーツ) で作成したものです。
光度グラフはComet for Windowsで作成したものです。

---------------------------------------------------------------------

Copyright(C) 1995-2008 Seiichi Yoshida (comet@aerith.net). All rights reserved.